Вернуться в каталог

COSMOS 646

АктивенВоенныеLEO
NORAD 7270·PAYLOAD·🇷🇺 Russia

Запущен Apr 23, 1974 с Plesetsk Cosmodrome

Loading…

Ближайшие Пролёты (ближайшие 24 часа)

TLE

СвежийSource: Space-Track

Эпоха: Sep 14, 2026, 14:07 UTC

1  7270U 74024F   26257.58833729 -.00000001  00000-0  93683-4 0  9995
2  7270  74.0186 310.6243 0052401 279.2108 152.3382 12.55028974400409

Отслеживайте COSMOS 646 в реальном времени с AllMySat

Download on the App Store